This is the latest recevied weather packets stored in our database for station/object CE4JVU-10. If no packets are shown the sender has not sent any weather packets the latest 10 day(s).
| Time | Temp. | Humidity | Pressure | Rain* | Wind** | Luminosity | Snow |
|---|---|---|---|---|---|---|---|
| 1788139442 | 67° F | 48% | 738.1 mmHg | - | - | - | - |
| 1788138541 | 66° F | 49% | 737.8 mmHg | - | - | - | - |
| 1788137643 | 65° F | 50% | 737.8 mmHg | - | - | - | - |
| 1788136743 | 64° F | 51% | 737.8 mmHg | - | - | - | - |
| 1788135843 | 65° F | 51% | 737.7 mmHg | - | - | - | - |
| 1788134943 | 65° F | 49% | 737.5 mmHg | - | - | - | - |
| 1788134042 | 64° F | 49% | 737.5 mmHg | - | - | - | - |
| 1788133142 | 64° F | 48% | 737.1 mmHg | - | - | - | - |
| 1788132242 | 64° F | 49% | 736.9 mmHg | - | - | - | - |
| 1788131342 | 66° F | 48% | 736.7 mmHg | - | - | - | - |
| 1788130442 | 67° F | 50% | 736.6 mmHg | - | - | - | - |
| 1788129542 | 67° F | 50% | 736.3 mmHg | - | - | - | - |
| 1788128642 | 68° F | 47% | 736.2 mmHg | - | - | - | - |
| 1788127742 | 68° F | 46% | 736.1 mmHg | - | - | - | - |
| 1788126842 | 69° F | 48% | 735.9 mmHg | - | - | - | - |
| 1788125941 | 72° F | 49% | 736 mmHg | - | - | - | - |
| 1788125041 | 73° F | 49% | 735.9 mmHg | - | - | - | - |
| 1788124141 | 73° F | 46% | 735.8 mmHg | - | - | - | - |
| 1788123241 | 73° F | 46% | 735.8 mmHg | - | - | - | - |
| 1788122341 | 73° F | 46% | 735.7 mmHg | - | - | - | - |
| 1788121441 | 74° F | 44% | 735.8 mmHg | - | - | - | - |
| 1788120541 | 75° F | 44% | 735.7 mmHg | - | - | - | - |
| 1788119641 | 75° F | 44% | 735.7 mmHg | - | - | - | - |
| 1788118741 | 75° F | 43% | 735.7 mmHg | - | - | - | - |
| 1788117840 | 74° F | 43% | 735.6 mmHg | - | - | - | - |
* Rain since midnight (hover to see other rain measurements)
** Current wind speed in m/s (hover to see current wind gust speed)